Location: Unspecified
(50.7693°N, 0.0000°E)
Time: 06:44:16
(UTC+00:00)

Transit 2A - Pass Details

Date: 21 August 2020
Orbit: 591 x 967 km, 66.7° (Epoch: 20 September)

Event Time Altitude Azimuth Distance (km) Brightness Sun altitude
Rises 01:28:41 0° 322° (NW) 3,667 9.9 -24.5°
Reaches altitude 10° 01:31:19 10° 324° (NW) 2,712 9.2 -24.4°
Maximum altitude 01:37:43 73° 49° (NE) 983 6.6 -23.9°
Drops below altitude 10° 01:43:44 10° 135° (SE) 2,555 8.5 -23.5°
Enters shadow 01:44:09 - 135° (SE) 2,706 8.6 -23.5°
